KF5PJP Weather Reports


Display with metric or nautical units.
time (UTC)temp
F
wind
direction
speed
MPH
gust
MPH
rain 1hr
in
rain 24hr
in
rain mn
in
humidity
%
barometer
mb
20260505005901 76 100 0.0 2.0 0.00 0.00 0.00 62 1007.4
20260505005416 76 100 0.0 2.0 0.00 0.00 0.00 62 1007.2
20260505004409 76 288 0.0 5.0 0.00 0.00 0.00 60 1007.3
20260505003349 77 106 0.0 0.0 0.00 0.00 0.00 60 1007.2
20260505002905 77 288 0.0 3.0 0.00 0.00 0.00 59 1007.2
20260505001916 77 281 0.0 1.0 0.00 0.00 0.00 59 1007.3
20260505000914 78 88 0.0 2.0 0.00 0.00 0.00 58 1007.4
20260504235912 78 292 0.0 2.0 0.00 0.00 0.00 56 1007.5
20260504235454 79 254 1.0 3.0 0.00 0.00 0.00 56 1007.5
20260504234847 79 109 0.0 2.0 0.00 0.00 0.00 56 1007.6
20260504233902 79 253 1.0 3.0 0.00 0.00 0.00 55 1007.9
20260504233433 79 238 0.0 3.0 0.00 0.00 0.00 55 1007.9
20260504232407 80 105 1.0 7.0 0.00 0.00 0.00 54 1008.0
20260504231935 80 142 1.0 7.0 0.00 0.00 0.00 54 1007.9
20260504230902 80 256 1.0 6.0 0.00 0.00 0.00 54 1007.9
20260504225910 81 340 0.0 7.0 0.00 0.00 0.00 53 1008.0
20260504224902 81 80 0.0 3.0 0.00 0.00 0.00 52 1008.1
20260504224437 81 22 0.0 3.0 0.00 0.00 0.00 52 1008.2
20260504223852 81 16 1.0 3.0 0.00 0.00 0.00 52 1008.2
20260504222840 81 130 0.0 3.0 0.00 0.00 0.00 51 1008.4
20260504221909 82 37 2.0 7.0 0.00 0.00 0.00 51 1008.4
20260504220851 83 338 2.0 8.0 0.00 0.00 0.00 48 1008.4
20260504220431 83 77 2.0 8.0 0.00 0.00 0.00 48 1008.4
20260504215411 83 96 1.0 4.0 0.00 0.00 0.00 48 1008.7
20260504214405 83 135 1.0 7.0 0.00 0.00 0.00 47 1008.8
20260504213846 83 269 0.0 5.0 0.00 0.00 0.00 47 1009.0
20260504213414 83 323 1.0 5.0 0.00 0.00 0.00 47 1009.0
20260504212841 82 13 1.0 5.0 0.00 0.00 0.00 46 1009.2
20260504212402 82 54 0.0 5.0 0.00 0.00 0.00 47 1009.4
20260504211932 82 113 0.0 4.0 0.00 0.00 0.00 48 1009.4
20260504211345 82 248 1.0 4.0 0.00 0.00 0.00 45 1009.5
20260504210901 82 36 1.0 4.0 0.00 0.00 0.00 47 1009.6
20260504210348 82 103 1.0 4.0 0.00 0.00 0.00 47 1009.7
20260504205920 82 87 1.0 5.0 0.00 0.00 0.00 48 1009.9
20260504205433 82 86 1.0 8.0 0.00 0.00 0.00 46 1010.0
20260504204847 82 122 2.0 8.0 0.00 0.00 0.00 44 1010.0
20260504204403 83 291 3.0 8.0 0.00 0.00 0.00 44 1010.2
20260504203913 83 28 0.0 3.0 0.00 0.00 0.00 48 1010.2
20260504203423 83 64 1.0 8.0 0.00 0.00 0.00 45 1010.3
20260504202436 82 145 1.0 7.0 0.00 0.00 0.00 46 1010.4
20260504201904 83 90 2.0 6.0 0.00 0.00 0.00 44 1010.5
20260504200857 82 262 1.0 9.0 0.00 0.00 0.00 45 1010.7
20260504195856 81 44 2.0 9.0 0.00 0.00 0.00 45 1010.8
20260504194907 82 137 1.0 11.0 0.00 0.00 0.00 47 1011.0
20260504193901 82 33 1.0 5.0 0.00 0.00 0.00 47 1011.1
20260504193407 82 85 1.0 8.0 0.00 0.00 0.00 45 1011.3
20260504192419 81 71 1.0 3.0 0.00 0.00 0.00 46 1011.3
20260504191426 81 78 2.0 6.0 0.00 0.00 0.00 45 1011.6
20260504190840 81 103 1.0 6.0 0.00 0.00 0.00 46 1011.6
20260504190436 82 69 2.0 5.0 0.00 0.00 0.00 45 1011.7
20260504185851 82 236 0.0 5.0 0.00 0.00 0.00 46 1011.8
20260504185431 82 32 1.0 5.0 0.00 0.00 0.00 44 1011.8
20260504184849 81 131 1.0 7.0 0.00 0.00 0.00 46 1011.9
20260504184420 81 40 1.0 7.0 0.00 0.00 0.00 47 1011.9
20260504183412 81 342 1.0 6.0 0.00 0.00 0.00 47 1012.0
20260504182952 81 325 0.0 2.0 0.00 0.00 0.00 45 1012.2
20260504182347 81 215 1.0 2.0 0.00 0.00 0.00 45 1012.4
20260504181358 80 86 2.0 8.0 0.00 0.00 0.00 45 1012.6
20260504180348 80 140 0.0 3.0 0.00 0.00 0.00 47 1012.5
20260504175913 79 150 1.0 6.0 0.00 0.00 0.00 46 1012.7
20260504175340 79 338 1.0 6.0 0.00 0.00 0.00 46 1012.6
20260504174921 79 61 1.0 7.0 0.00 0.00 0.00 46 1012.8
20260504174459 79 66 2.0 7.0 0.00 0.00 0.00 45 1012.8
20260504173843 79 66 2.0 7.0 0.00 0.00 0.00 46 1013.0
20260504172853 79 92 1.0 3.0 0.00 0.00 0.00 49 1013.2
20260504172424 78 215 1.0 5.0 0.00 0.00 0.00 47 1013.2
20260504171400 77 82 1.0 7.0 0.00 0.00 0.00 50 1013.4
20260504170358 77 49 2.0 5.0 0.00 0.00 0.00 49 1013.3
20260504160410 73 80 2.0 6.0 0.00 0.00 0.00 55 1014.0
20260504150400 69 90 1.0 6.0 0.00 0.00 0.00 62 1014.5
20260504140358 64 94 0.0 4.0 0.00 0.00 0.00 70 1014.6
20260504130420 60 217 0.0 3.0 0.00 0.00 0.00 79 1014.6
20260504100337 58 78 0.0 1.0 0.00 0.00 0.00 79 1014.2
20260504081907 61 36 0.0 4.0 0.00 0.00 0.00 72 1014.6
20260504080908 61 40 0.0 4.0 0.00 0.00 0.00 72 1014.6
20260504080417 61 69 1.0 5.0 0.00 0.00 0.00 73 1014.5
20260504050343 61 92 0.0 0.0 0.00 0.00 0.00 71 1016.1
20260504045943 61 92 0.0 0.0 0.00 0.00 0.00 71 1016.1
20260504045448 61 91 0.0 0.0 0.00 0.00 0.00 70 1016.1
20260504044843 61 91 0.0 0.0 0.00 0.00 0.00 70 1016.1
20260504044412 61 92 0.0 0.0 0.00 0.00 0.00 69 1016.1
20260504043342 61 92 0.0 0.0 0.00 0.00 0.00 70 1016.2
20260504042348 62 92 0.0 0.0 0.00 0.00 0.00 69 1016.2
20260504041410 62 91 0.0 0.0 0.00 0.00 0.00 68 1016.2
20260504040401 63 91 0.0 0.0 0.00 0.00 0.00 68 1016.2
20260504035349 63 91 0.0 0.0 0.00 0.00 0.00 67 1016.2
20260504034933 63 91 0.0 0.0 0.00 0.00 0.00 67 1016.3
20260504034458 64 91 0.0 0.0 0.00 0.00 0.00 67 1016.3
20260504033844 64 91 0.0 0.0 0.00 0.00 0.00 66 1016.3
20260504033419 64 92 0.0 0.0 0.00 0.00 0.00 67 1016.2
20260504032408 65 92 0.0 0.0 0.00 0.00 0.00 66 1016.2
20260504031423 65 92 0.0 1.0 0.00 0.00 0.00 65 1016.3
20260504030847 65 92 0.0 1.0 0.00 0.00 0.00 66 1016.3
20260504025856 66 91 0.0 0.0 0.00 0.00 0.00 64 1016.3
20260504025409 66 91 0.0 1.0 0.00 0.00 0.00 63 1016.3
20260504024418 66 91 0.0 0.0 0.00 0.00 0.00 63 1016.4
20260504023403 67 91 0.0 0.0 0.00 0.00 0.00 61 1016.2
20260504022409 67 92 0.0 0.0 0.00 0.00 0.00 60 1016.1
20260504021414 68 92 0.0 0.0 0.00 0.00 0.00 59 1016.1
20260504020408 68 91 0.0 0.0 0.00 0.00 0.00 57 1016.0
20260504015930 69 91 0.0 0.0 0.00 0.00 0.00 57 1016.1
20260504015347 69 91 0.0 0.0 0.00 0.00 0.00 56 1016.1
20260504014353 70 91 0.0 0.0 0.00 0.00 0.00 55 1016.0
20260504013341 71 91 0.0 0.0 0.00 0.00 0.00 53 1015.9
20260504012921 71 91 0.0 1.0 0.00 0.00 0.00 52 1015.9
20260504011842 72 94 0.0 1.0 0.00 0.00 0.00 49 1015.9
20260504011412 73 109 0.0 0.0 0.00 0.00 0.00 48 1015.8